Hourly Data Report for January 04, 2006

TORONTO CITY
ONTARIO

43°40'00.000" N
79°24'00.000" W
112.50 m
6158355
71508
XTO

Download Data

Hourly Data (January 2006)
Hourly Data Report for January 4, 2006
TIME
LST
Temp Definition
°C
Dew Point Definition
°C
Rel Hum Definition
%
Precip. Amount Definition
mm

Wind Dir Definition
10's deg

Wind Spd Definition
km/h
Visibility Definition
km
Stn Press Definition
kPa
Hmdx Definition


Wind Chill Definition


Weather Definition


00:00 2.6 1.8 94   LegendMM LegendMM   100.19     LegendNANA
01:00 2.0 1.1 94   LegendMM LegendMM   100.14     LegendNANA
02:00 1.9 1.2 95   LegendMM LegendMM   100.11     LegendNANA
03:00 2.3 1.8 96   LegendMM LegendMM   100.10     LegendNANA
04:00 2.7 2.3 97   LegendMM LegendMM   100.01     LegendNANA
05:00 3.0 2.6 97   LegendMM LegendMM   99.92     LegendNANA
06:00 3.5 3.1 97   LegendMM LegendMM   99.91     LegendNANA
07:00 3.6 3.1 97   LegendMM LegendMM   99.81     LegendNANA
08:00 3.6 3.0 96   LegendMM LegendMM   99.76     LegendNANA
09:00 4.1 3.5 96   LegendMM LegendMM   99.72     LegendNANA
10:00 4.0 3.5 97   LegendMM LegendMM   99.59     LegendNANA
11:00 4.1 3.7 97   LegendMM LegendMM   99.47     LegendNANA
12:00 4.8 4.2 96   LegendMM LegendMM   99.32     LegendNANA
13:00 4.9 4.5 97   LegendMM LegendMM   99.17     LegendNANA
14:00 4.8 4.5 98   LegendMM LegendMM   99.04     LegendNANA
15:00 4.5 4.3 99   LegendMM LegendMM   98.98     LegendNANA
16:00 4.7 4.6 99   LegendMM LegendMM   98.99     LegendNANA
17:00 4.8 4.7 99   LegendMM LegendMM   98.92     LegendNANA
18:00 4.8 4.7 99   LegendMM LegendMM   98.87     LegendNANA
19:00 4.8 4.8 100   LegendMM LegendMM   98.85     LegendNANA
20:00 5.4 5.4 100   LegendMM LegendMM   98.79     LegendNANA
21:00 5.5 5.4 99   LegendMM LegendMM   98.74     LegendNANA
22:00 5.6 5.5 99   LegendMM LegendMM   98.68     LegendNANA
23:00 5.4 5.4 100   LegendMM LegendMM   98.65     LegendNANA

Notes on Data Quality.

Legend

  • E = Estimated
  • M = Missing
  • NA = Not Available*
  • [empty] = Indicates an unobserved value
Date modified: